FW8733 Weather Reports


time (UTC)temp
C
wind
direction
speed
KPH
gust
KPH
rain 1hr
cm
rain 24hr
cm
rain mn
cm
humidity
%
barometer
mb
20260504013506 21 208 0.0 0.0 0.00 0.00 0.00 52 1020.2
20260504013002 21 208 0.0 0.0 0.00 0.00 0.00 52 1019.8
20260504012500 21 208 0.0 0.0 0.00 0.00 0.00 51 1020.2
20260504011958 21 208 0.0 0.0 0.00 0.00 0.00 51 1019.9
20260504011454 22 208 0.0 1.6 0.00 0.00 0.00 50 1019.9
20260504010950 22 177 0.0 0.0 0.00 0.00 0.00 51 1019.8
20260504010446 22 177 0.0 1.6 0.00 0.00 0.00 49 1019.9
20260504005942 22 176 3.2 3.2 0.00 0.00 0.00 49 1019.9
20260504005439 22 210 1.6 1.6 0.00 0.00 0.00 48 1019.7
20260504004937 23 213 4.8 4.8 0.00 0.00 0.00 47 1019.8
20260504004434 23 186 8.0 9.7 0.00 0.00 0.00 46 1019.9
20260504003931 23 211 0.0 0.0 0.00 0.00 0.00 47 1019.9
20260504003427 23 201 3.2 3.2 0.00 0.00 0.00 46 1020.1
20260504002924 23 184 1.6 3.2 0.00 0.00 0.00 45 1019.8
20260504002421 23 214 4.8 8.0 0.00 0.00 0.00 45 1020.1
20260504001918 23 152 6.4 8.0 0.00 0.00 0.00 44 1020.0
20260504001416 23 197 1.6 3.2 0.00 0.00 0.00 44 1020.0
20260504000912 23 156 8.0 9.7 0.00 0.00 0.00 43 1020.0
20260504000409 23 203 1.6 1.6 0.00 0.00 0.00 45 1020.3
20260503235907 23 205 4.8 8.0 0.00 0.00 0.00 42 1020.1
20260503235405 23 171 8.0 11.3 0.00 0.00 0.00 42 1020.4
20260503234902 24 193 9.7 12.9 0.00 0.00 0.00 42 1020.4
20260503234359 24 160 8.0 11.3 0.00 0.00 0.00 41 1020.6
20260503233857 25 194 3.2 4.8 0.00 0.00 0.00 41 1020.6
20260503233353 25 142 9.7 11.3 0.00 0.00 0.00 40 1020.7
20260503232849 25 175 8.0 11.3 0.00 0.00 0.00 41 1020.3
20260503232347 25 150 6.4 8.0 0.00 0.00 0.00 41 1020.6
20260503231845 25 127 8.0 9.7 0.00 0.00 0.00 40 1020.3
20260503231341 25 209 3.2 3.2 0.00 0.00 0.00 41 1020.5
20260503230838 25 131 8.0 11.3 0.00 0.00 0.00 40 1020.6
20260503230335 25 209 3.2 3.2 0.00 0.00 0.00 41 1020.2
20260503225833 25 220 9.7 12.9 0.00 0.00 0.00 39 1020.2
20260503225328 25 177 9.7 11.3 0.00 0.00 0.00 40 1020.4
20260503224825 25 209 3.2 3.2 0.00 0.00 0.00 40 1020.5
20260503224322 25 169 4.8 4.8 0.00 0.00 0.00 41 1020.4
20260503223820 25 167 8.0 11.3 0.00 0.00 0.00 40 1020.6
20260503223317 25 218 3.2 4.8 0.00 0.00 0.00 40 1020.6
20260503222812 25 215 4.8 4.8 0.00 0.00 0.00 39 1020.6
20260503222311 26 129 0.0 1.6 0.00 0.00 0.00 37 1020.6
20260503221809 26 178 1.6 3.2 0.00 0.00 0.00 38 1021.0
20260503221307 26 197 4.8 8.0 0.00 0.00 0.00 37 1020.9
20260503220803 26 189 4.8 4.8 0.00 0.00 0.00 36 1020.9
20260503220300 26 157 6.4 11.3 0.00 0.00 0.00 38 1021.0
20260503215757 26 211 3.2 3.2 0.00 0.00 0.00 37 1021.2
20260503215254 26 220 8.0 11.3 0.00 0.00 0.00 36 1021.2
20260503214752 26 184 8.0 11.3 0.00 0.00 0.00 35 1021.5
20260503214248 26 212 0.0 1.6 0.00 0.00 0.00 37 1021.4
20260503213746 26 108 6.4 9.7 0.00 0.00 0.00 35 1021.4
20260503213243 26 122 8.0 9.7 0.00 0.00 0.00 36 1021.6
20260503212740 26 136 8.0 11.3 0.00 0.00 0.00 38 1021.7
20260503212238 26 127 17.7 20.9 0.00 0.00 0.00 35 1021.8
20260503211735 26 156 9.7 12.9 0.00 0.00 0.00 34 1021.9
20260503211231 26 171 8.0 9.7 0.00 0.00 0.00 34 1022.0
20260503210727 26 161 1.6 3.2 0.00 0.00 0.00 38 1022.2
20260503210225 26 188 9.7 12.9 0.00 0.00 0.00 35 1022.3
20260503205720 26 120 9.7 16.1 0.00 0.00 0.00 36 1022.4
20260503205216 26 193 1.6 3.2 0.00 0.00 0.00 37 1022.5
20260503204713 26 176 4.8 8.0 0.00 0.00 0.00 36 1022.3
20260503204211 27 180 8.0 14.5 0.00 0.00 0.00 34 1022.7
20260503203708 27 203 4.8 8.0 0.00 0.00 0.00 37 1022.6
20260503203205 26 146 9.7 11.3 0.00 0.00 0.00 35 1022.9
20260503202702 26 140 9.7 14.5 0.00 0.00 0.00 36 1022.8
20260503202200 26 197 9.7 12.9 0.00 0.00 0.00 35 1022.9
20260503201658 26 212 8.0 11.3 0.00 0.00 0.00 36 1023.3
20260503201155 26 196 3.2 3.2 0.00 0.00 0.00 38 1023.1
20260503200651 26 169 4.8 4.8 0.00 0.00 0.00 37 1023.1
20260503200148 26 155 9.7 12.9 0.00 0.00 0.00 37 1023.3
20260503195644 26 191 6.4 8.0 0.00 0.00 0.00 34 1023.2
20260503195142 26 183 11.3 12.9 0.00 0.00 0.00 37 1023.3
20260503194638 26 209 3.2 4.8 0.00 0.00 0.00 36 1023.5
20260503194134 26 210 8.0 11.3 0.00 0.00 0.00 37 1023.6
20260503193631 26 233 4.8 8.0 0.00 0.00 0.00 37 1023.7
20260503193126 26 156 6.4 11.3 0.00 0.00 0.00 37 1023.5
20260503192622 26 196 4.8 4.8 0.00 0.00 0.00 40 1023.6
20260503192118 26 215 9.7 12.9 0.00 0.00 0.00 36 1023.6
20260503191615 26 196 4.8 4.8 0.00 0.00 0.00 36 1023.5
20260503191112 26 221 1.6 1.6 0.00 0.00 0.00 37 1023.7
20260503190609 26 172 8.0 9.7 0.00 0.00 0.00 38 1023.6
20260503190106 27 181 6.4 8.0 0.00 0.00 0.00 34 1023.9
20260503185603 26 212 6.4 11.3 0.00 0.00 0.00 35 1024.2
20260503185102 26 218 0.0 0.0 0.00 0.00 0.00 37 1024.0
20260503184558 26 158 11.3 12.9 0.00 0.00 0.00 35 1024.3
20260503184055 26 176 6.4 8.0 0.00 0.00 0.00 34 1024.1
20260503183551 26 227 4.8 4.8 0.00 0.00 0.00 35 1024.5
20260503183049 26 228 3.2 4.8 0.00 0.00 0.00 38 1024.3
20260503182547 26 198 6.4 8.0 0.00 0.00 0.00 35 1024.7
20260503182045 26 197 4.8 8.0 0.00 0.00 0.00 35 1024.5
20260503181541 26 176 0.0 0.0 0.00 0.00 0.00 41 1024.8
20260503181038 26 185 9.7 11.3 0.00 0.00 0.00 37 1024.8
20260503180535 26 130 8.0 11.3 0.00 0.00 0.00 35 1025.0
20260503180032 26 209 0.0 1.6 0.00 0.00 0.00 40 1024.9
20260503175530 26 170 4.8 8.0 0.00 0.00 0.00 41 1025.2
20260503175027 26 177 4.8 11.3 0.00 0.00 0.00 42 1025.3
20260503174524 26 196 8.0 11.3 0.00 0.00 0.00 40 1025.5
20260503174020 26 224 1.6 3.2 0.00 0.00 0.00 39 1025.4
20260503173515 25 219 8.0 12.9 0.00 0.00 0.00 41 1025.8
20260503173012 25 164 9.7 14.5 0.00 0.00 0.00 44 1025.4
20260503172510 26 214 6.4 11.3 0.00 0.00 0.00 38 1025.2
20260503172006 25 225 4.8 8.0 0.00 0.00 0.00 42 1025.9
20260503171503 25 209 1.6 3.2 0.00 0.00 0.00 46 1025.6
20260503171000 25 191 9.7 11.3 0.00 0.00 0.00 42 1025.9
20260503170456 26 194 8.0 9.7 0.00 0.00 0.00 41 1026.0
20260503150849 21 205 0.0 0.0 0.00 0.00 0.00 65 1026.6
20260503150345 21 248 0.0 1.6 0.00 0.00 0.00 63 1026.8
20260503140309 18 239 1.6 1.6 0.00 0.00 0.00 71 1026.4
20260503131239 12 221 0.0 0.0 0.00 0.00 0.00 99 1026.5
20260503130736 12 240 0.0 0.0 0.00 0.00 0.00 99 1026.3
20260503130233 12 239 0.0 0.0 0.00 0.00 0.00 99 1026.4
20260503120159 10 205 0.0 0.0 0.00 0.00 0.00 99 1025.6
20260503110627 11 205 0.0 0.0 0.00 0.00 0.00 99 1025.1
20260503110124 11 205 0.0 0.0 0.00 0.00 0.00 99 1025.4
20260503081440 12 205 0.0 0.0 0.00 0.00 0.00 99 1025.0
20260503080937 12 205 0.0 0.0 0.00 0.00 0.00 99 1024.7
20260503080433 12 205 0.0 0.0 0.00 0.00 0.00 99 1024.8
20260503072910 12 205 0.0 0.0 0.00 0.00 0.00 97 1025.0
20260503072407 12 205 0.0 0.0 0.00 0.00 0.00 97 1025.1
20260503071904 12 205 0.0 0.0 0.00 0.00 0.00 97 1025.0
20260503071401 13 205 0.0 0.0 0.00 0.00 0.00 97 1025.2
20260503070856 12 205 0.0 0.0 0.00 0.00 0.00 96 1024.9
20260503070355 13 205 0.0 0.0 0.00 0.00 0.00 96 1025.1
20260503060320 13 205 0.0 0.0 0.00 0.00 0.00 90 1025.3
20260503054808 13 205 0.0 0.0 0.00 0.00 0.00 88 1025.2
20260503054304 13 205 0.0 0.0 0.00 0.00 0.00 87 1025.2
20260503053802 13 205 0.0 0.0 0.00 0.00 0.00 87 1025.2
20260503053300 13 205 0.0 0.0 0.00 0.00 0.00 87 1025.3
20260503052756 13 205 0.0 0.0 0.00 0.00 0.00 87 1025.4
20260503052253 13 205 0.0 0.0 0.00 0.00 0.00 87 1025.3
20260503051748 13 205 0.0 0.0 0.00 0.00 0.00 87 1025.3
20260503051246 13 205 0.0 0.0 0.00 0.00 0.00 86 1025.4
20260503050742 13 205 0.0 0.0 0.00 0.00 0.00 86 1025.2
20260503050239 13 205 0.0 0.0 0.00 0.00 0.00 86 1025.1
20260503045736 13 205 0.0 0.0 0.00 0.00 0.00 86 1025.2
20260503045234 13 205 0.0 0.0 0.00 0.00 0.00 87 1025.2
20260503044730 13 205 0.0 0.0 0.00 0.00 0.00 87 1025.1
20260503044228 14 205 0.0 0.0 0.00 0.00 0.00 87 1025.1
20260503043724 14 205 0.0 0.0 0.00 0.00 0.00 86 1025.3
20260503043222 15 205 0.0 0.0 0.00 0.00 0.00 85 1025.3
20260503042717 15 205 0.0 0.0 0.00 0.00 0.00 84 1025.1
20260503042214 15 205 0.0 0.0 0.00 0.00 0.00 82 1025.2
20260503041710 15 205 0.0 0.0 0.00 0.00 0.00 81 1025.2
20260503041208 15 205 0.0 0.0 0.00 0.00 0.00 80 1025.0
20260503040705 14 205 0.0 0.0 0.00 0.00 0.00 81 1025.0
20260503040203 14 205 0.0 0.0 0.00 0.00 0.00 84 1024.9
20260503035659 14 205 0.0 0.0 0.00 0.00 0.00 84 1024.8
20260503035157 15 205 0.0 0.0 0.00 0.00 0.00 84 1024.9
20260503034654 15 205 0.0 0.0 0.00 0.00 0.00 83 1024.9
20260503034151 15 205 0.0 0.0 0.00 0.00 0.00 83 1024.8
20260503033649 15 205 0.0 0.0 0.00 0.00 0.00 83 1024.7
20260503033146 15 205 0.0 0.0 0.00 0.00 0.00 83 1024.7
20260503032644 15 205 0.0 0.0 0.00 0.00 0.00 81 1024.9
20260503032143 15 205 0.0 0.0 0.00 0.00 0.00 79 1024.7
20260503031639 15 205 0.0 0.0 0.00 0.00 0.00 75 1024.8
20260503031137 15 205 0.0 0.0 0.00 0.00 0.00 73 1024.6
20260503030633 16 205 0.0 0.0 0.00 0.00 0.00 70 1024.5
20260503030130 16 205 0.0 0.0 0.00 0.00 0.00 69 1024.5
20260503025626 16 205 0.0 0.0 0.00 0.00 0.00 69 1024.4
20260503025125 16 205 0.0 0.0 0.00 0.00 0.00 71 1024.4
20260503024621 16 204 0.0 0.0 0.00 0.00 0.00 68 1024.4
20260503024118 16 204 0.0 0.0 0.00 0.00 0.00 67 1024.5
20260503023615 16 204 0.0 0.0 0.00 0.00 0.00 67 1024.4
20260503023112 16 205 0.0 0.0 0.00 0.00 0.00 67 1024.4
20260503022607 17 204 0.0 0.0 0.00 0.00 0.00 68 1023.9
20260503022102 17 204 0.0 0.0 0.00 0.00 0.00 67 1023.9
20260503021600 17 204 0.0 0.0 0.00 0.00 0.00 66 1024.0
20260503021056 17 204 0.0 0.0 0.00 0.00 0.00 65 1023.8
20260503020553 17 204 0.0 0.0 0.00 0.00 0.00 63 1023.6
20260503020050 17 204 0.0 0.0 0.00 0.00 0.00 63 1023.7
20260503015547 17 204 0.0 0.0 0.00 0.00 0.00 63 1023.5
20260503015045 17 204 0.0 0.0 0.00 0.00 0.00 63 1023.8
20260503014540 17 204 0.0 0.0 0.00 0.00 0.00 64 1023.7
20260503014038 17 204 0.0 0.0 0.00 0.00 0.00 64 1023.5